Simultaneous Nadir Overpasses (SNOs) Predictions

Prediction of SNOs between GOES-17 and NOAA-20 Satellite Orbit:

Table of predicted SNOs for the next 14.0 days since TLE Epoch: 2/26/2022
Index Date Time (GOES-17) GOES-17 Lat,Lon NOAA-20 Lat,Lon Distance(km) Time Diff (sec)
1 02/27/2022 10:39:38 -0.04,-137.20 0.19,-138.28 123.05 80
2 02/28/2022 10:18:15 -0.03,-137.20 -0.83,-133.76 392.99 80
3 03/01/2022 22:42:52 0.02,-137.20 -0.40,-139.05 211.43 80
4 03/02/2022 22:21:29 0.02,-137.20 0.62,-134.53 304.57 80
5 03/04/2022 10:45:58 -0.02,-137.19 0.56,-139.80 297.00 80
6 03/05/2022 10:24:34 -0.02,-137.19 -0.45,-135.27 218.68 80
7 03/06/2022 22:46:32 0.02,-137.19 -0.77,-140.57 386.51 80
8 03/07/2022 22:30:28 0.02,-137.18 0.25,-136.04 128.94 80
9 03/09/2022 10:52:18 -0.02,-137.16 0.93,-141.32 473.65 80
10 03/10/2022 10:30:54 -0.01,-137.15 -0.09,-136.79 41.28 80
